Location: Dziewi?czyce
(50.4192°N, 20.3585°E)
Time: 18:55:47
(UTC+00:00)

Daily predictions for brighter satellites

Satellite Brightness Start Highest point End
(mag) Time Altitude Azimuth Time Altitude Azimuth Time Altitude Azimuth
SL-16 R/B 2.4 15:01:32 10° NNW 15:07:14 80° WSW 15:12:53 10° SSE
Cosmos 1607 4.1 15:05:30 10° SSW 15:11:45 67° SE 15:18:10 10° NE
Cosmos 1238 Rocket 2.5 15:08:41 10° SSW 15:12:15 76° W 15:15:23 10° N
Cosmos 1544 2.8 15:09:34 10° N 15:12:48 61° ENE 15:16:01 10° SSE
ATLAS 2AS CENTAUR R/B 3.4 15:07:08 10° NW 15:13:34 35° NNE 15:19:41 10° E
USA 306 2.2 15:11:21 10° WNW 15:13:35 49° SSW 15:15:39 10° SE
SL-8 R/B 4.3 15:10:25 10° W 15:15:07 59° SSW 15:19:49 10° ESE
Cosmos 1602 4.4 15:14:19 10° N 15:17:39 30° ENE 15:21:00 10° SE
RESURS DK-1 4.2 15:16:05 10° N 15:18:00 13° NE 15:19:54 10° ENE
Cosmos 1943 3.4 15:12:42 10° NNW 15:18:10 47° NE 15:23:35 10° SE
CZ-4B R/B 4.4 15:16:14 10° ESE 15:20:20 26° ENE 15:24:23 10° N
Cosmos 1606 3.6 15:19:11 10° SSW 15:22:42 47° WNW 15:26:17 10° N
USA 305 2.6 15:18:54 10° WNW 15:22:43 89° N 15:26:34 10° ESE
Cosmos 1953 Rocket 4.0 15:23:41 10° NNW 15:28:08 67° W 15:32:30 10° S
SMAP 3.2 15:23:43 10° SE 15:28:12 50° ENE 15:32:43 10° N
SL-16 R/B 3.8 15:22:38 10° N 15:28:25 41° WNW 15:34:12 10° SW
Cosmos 1500 2.9 15:26:28 10° N 15:30:00 68° ENE 15:33:31 10° SSE
Cosmos 2297 Rocket 3.3 15:25:01 10° WSW 15:30:19 40° NW 15:35:40 10° NNE
Aureole 3 Rocket 3.7 15:26:18 10° NNW 15:30:55 55° W 15:34:22 10° S
Cosmos 2344 4.4 15:24:46 10° S 15:31:05 29° ESE 15:37:03 11° ENE
Helios 1B rocket 2.4 15:27:22 10° SSE 15:31:19 87° WSW 15:35:17 10° NNW
Cosmos 407 Rocket 4.0 15:26:33 10° NNW 15:31:22 37° NE 15:36:06 10° ESE
CZ-4B R/B 4.0 15:30:50 10° SE 15:34:14 41° ENE 15:37:42 10° N
Cosmos 2219 3.3 15:31:09 10° SSW 15:36:46 81° WNW 15:42:27 10° NNE
H-2A R/B 4.5 15:34:04 10° SSW 15:38:10 25° W 15:42:14 10° NW
Cosmos 2251 Rocket 3.8 15:33:46 10° NNW 15:38:54 45° ENE 15:44:03 10° SE
Cosmos 405 Rocket 3.0 15:37:29 10° SSW 15:41:16 70° WNW 15:45:09 10° N
ISS -1.7 15:41:44 10° W 15:44:42 29° SSW 15:47:40 10° SSE
Lacrosse 5 3.5 15:46:45 10° SSE 15:50:06 18° SE 15:52:30 13° E
Cosmos 1833 Rocket 4.3 15:47:12 10° N 15:50:21 15° NNE 15:52:06 13° NE
Cosmos 2151 3.8 15:47:38 10° NNW 15:51:49 54° W 15:55:58 10° S
Cosmos 724 4.4 15:45:40 10° SW 15:51:52 90° W 15:57:43 12° NE
Cosmos 2082 3.7 15:46:17 10° SSW 15:51:54 86° ESE 15:57:35 10° NNE
COSMO-SKYMED 1 3.9 15:52:17 16° ENE 15:54:14 21° E 15:57:32 10° SE
Cosmos-2242 3.4 15:50:45 10° SSE 15:54:50 43° E 15:58:58 10° NNE
USA 234 4.0 15:50:14 14° ENE 15:55:18 36° SE 16:01:15 10° SSW
Lacrosse 4 Rocket 1.4 15:51:31 10° NNW 15:55:54 81° ENE 16:00:09 10° SE
Cosmos 2058 Rocket 3.4 15:52:51 10° SSW 15:57:16 68° WNW 16:01:40 10° N
Meteor 1-25 Rocket 4.3 15:53:28 10° N 15:59:02 55° ENE 16:04:32 10° SSE
Cosmos 1023 Rocket 4.4 15:55:24 10° NNW 16:00:36 81° ENE 16:05:43 10° SSE
Cosmos 1190 Rocket 4.4 15:58:23 10° NNW 16:03:25 41° ENE 16:08:23 10° SE
Cosmos 1818 4.3 16:00:10 10° S 16:05:04 35° ESE 16:08:07 20° ENE
APEX 3.3 16:02:42 10° S 16:05:19 29° ESE 16:05:47 28° E
Cosmos 2221 4.2 16:02:55 10° SE 16:04:18 15° ESE 16:04:18 15° ESE
Cosmos 1812 2.6 16:06:33 10° S 16:10:08 56° E 16:13:14 14° NNE
AQUARIUS 4.2 16:08:51 10° SSE 16:13:19 82° WSW 16:17:49 10° NNW
YAOGAN 11 4.5 16:09:14 10° N 16:13:46 69° WNW 16:18:17 10° SSW
CZ-2C R/B 4.2 16:12:41 10° SSW 16:16:01 37° W 16:19:24 10° NNW
USA 276 2.0 16:14:34 10° SW 16:16:54 44° SSE 16:17:13 40° SE
Cosmos 2263 Rocket 2.4 16:12:36 10° SW 16:18:09 72° WNW 16:23:22 12° NNE
Cosmos 1844 Rocket 3.5 16:13:44 10° SSE 16:18:29 30° ESE 16:20:21 24° ENE
Cosmos 1092 Rocket 4.1 16:15:25 10° SSE 16:21:14 47° E 16:27:05 10° NNE
Nadezhda 4 Rocket 3.9 16:15:10 10° S 16:21:18 82° E 16:27:28 10° N
USA 307 4.4 16:22:11 10° WNW 16:25:37 31° SW 16:28:59 10° SSE
Cosmos 1766 Rocket 4.1 16:21:53 10° N 16:25:55 34° ENE 16:29:53 10° SE
Cosmos 2227 4.2 16:20:55 10° SSW 16:26:36 65° ESE 16:30:34 20° NE
Cosmos 2227 Rocket 3.8 16:21:53 10° WSW 16:26:48 29° NW 16:31:43 10° NNE
Meteor 1-20 Rocket 4.3 16:21:39 10° NNW 16:27:14 81° W 16:32:54 10° S
Cosmos 2082 Rocket 4.1 16:25:07 10° N 16:27:18 12° NNE 16:27:31 12° NNE
Cosmos 1140 Rocket 3.9 16:23:01 10° NNW 16:28:10 65° WSW 16:33:15 10° S
YAOGAN 1 3.4 16:29:59 29° NE 16:29:59 29° NE 16:32:58 10° N
Meteor 1-5 Rocket 4.4 16:24:29 10° N 16:30:01 50° ENE 16:35:40 10° SSE
ADEOS 3.7 16:25:41 10° SE 16:30:43 52° ENE 16:35:48 10° N
Cosmos 1933 3.6 16:27:46 10° SSE 16:31:34 44° E 16:32:19 39° ENE
Cosmos 1603 3.9 16:32:43 10° NNW 16:38:24 73° WSW 16:44:01 10° SSE
CBERS 1 LM4 rocket 4.2 16:36:12 10° SSE 16:41:01 89° NE 16:45:45 10° NNW
Cosmos 1428 Rocket 4.4 16:35:23 10° S 16:41:41 78° E 16:47:58 10° NNE
SKYMED 2 3.6 16:40:54 33° NE 16:42:38 58° E 16:46:54 10° S
CZ-4B R/B 3.7 16:44:59 35° NNE 16:44:59 35° NNE 16:47:53 10° N
SL-08 R/B 3.4 16:46:51 45° E 16:47:21 46° E 16:51:49 10° S
Cosmos 192 4.4 16:43:55 10° S 16:48:39 52° ESE 16:49:36 45° ENE
Meteor 2-17 Rocket 4.3 16:44:16 10° S 16:50:22 74° E 16:56:29 10° NNE
ATLAS CENTAUR R/B 4.0 16:48:09 10° WNW 16:52:31 42° SW 17:00:29 10° SSE
RESURS DK-1 2.5 16:52:36 10° NNW 16:56:12 54° NNE 16:56:12 54° NNE
Cosmos 676 Rocket 3.9 16:52:07 10° NNW 16:57:26 65° ENE 16:59:42 33° SE
Cosmos 1627 Rocket 4.4 16:51:47 10° S 16:58:04 82° E 17:04:28 10° N
CZ-4B R/B 4.2 16:53:46 10° S 16:58:44 54° WSW 17:03:34 10° NNW
EO 1 Delta rocket 4.2 16:53:21 10° SSE 16:59:51 68° ENE 17:05:04 10° N
Helios 1A 3.3 16:58:42 22° N 17:01:15 63° WNW 17:05:20 10° SSW
Cosmos 1782 2.8 16:58:09 10° SSW 17:02:03 75° W 17:03:03 48° N
Cosmos 1812 Rocket 4.3 16:58:18 10° SSW 17:02:32 51° WNW 17:06:22 13° N
ATLAS 2AS CENTAUR R/B 2.5 16:58:23 10° NW 17:05:24 85° NE 17:09:09 28° SE
Radarsat Rocket 4.5 17:07:17 10° S 17:13:00 59° WSW 17:19:06 10° NNW
CZ-4B DEB 4.1 17:11:06 22° SSE 17:14:45 71° ENE 17:20:17 10° NNW
ADEOS Rocket 4.2 17:22:48 24° NNE 17:22:48 24° NNE 17:25:20 10° N
SME Rocket 4.4 17:21:35 10° SSE 17:27:23 85° WSW 17:36:34 10° NNW
Cosmos 1954 Rocket 4.3 17:22:55 10° NNW 17:28:09 65° WSW 17:31:28 22° S
Cosmos 2056 Rocket 3.4 17:23:15 10° SSW 17:28:39 84° ESE 17:28:45 83° E
COSMOS 2455 3.9 17:23:46 10° S 17:27:03 29° SSE 17:27:03 29° SSE
Timation 2 Rocket 3.7 17:23:48 10° SSW 17:29:46 85° ESE 17:30:41 66° NE
Cosmos 1844 3.6 17:24:11 10° SSW 17:29:57 84° ESE 17:30:24 76° NE
COSMO-SKYMED 1 3.4 17:29:31 38° NNW 17:30:40 49° WNW 17:34:52 10° SW
Lacrosse 5 2.0 17:27:20 10° SW 17:31:43 64° SSW 17:31:43 64° SSW
Cosmos 1833 Rocket 3.7 17:30:18 10° NNW 17:33:48 34° N 17:33:48 34° N
Meteor 1-14 Rocket 4.3 17:31:31 10° N 17:36:08 62° N 17:36:08 62° N
S3M 4.4 17:31:03 10° N 17:35:25 46° NNE 17:35:25 46° NNE
USA 234 3.1 17:37:35 63° NE 17:38:48 88° NNW 17:45:21 10° WSW
Cosmos 1553 Rocket 4.1 17:32:50 10° NNW 17:39:10 74° W 17:45:21 10° S
PAYLOAD B 4.3 17:42:07 66° N 17:42:07 66° N 17:46:53 10° NNW
Cosmos 2221 3.8 17:38:26 10° SSW 17:41:02 34° SW 17:41:02 34° SW
Cosmos 2344 3.6 17:37:20 10° SW 17:44:43 71° NW 17:47:05 46° NNE
Cosmos 1818 4.1 17:43:08 10° WSW 17:48:29 53° NW 17:48:46 53° NNW
Cosmos 1371 Rocket 4.4 17:47:48 10° SW 17:52:33 61° W 17:52:33 61° W
CZ-4B R/B 4.5 18:01:42 32° NNW 18:01:42 32° NNW 18:04:34 10° NNW
Cosmos 1844 Rocket 3.2 17:56:39 10° SW 18:02:02 54° WNW 18:02:02 54° WNW
Cosmos 2263 Rocket 4.2 17:59:09 10° W 18:03:07 19° NW 18:05:03 16° N
Cosmos 2082 Rocket 4.3 18:08:06 10° NNW 18:09:22 16° N 18:09:22 16° N
ATLAS 2AS CENTAUR R/B 4.3 18:50:10 10° WNW 18:55:30 25° WSW 18:56:38 24° SW
